Theta_e
296 297 297 300 311 317 320 323 324 327 328 328 327 326 325 327 328 328 329 327 326 323 321 320 319 315 313 313 313 311 304 304 302 298 302 302 302 301 302 304 304 304 303
293 294 295 296 299 309 317 320 323 325 327 329 329 329 329 329 329 327 327 329 328 325 322 321 319 317 317 312 310 307 303 305 300 302 298 301 304 300 301 302 300 304 304
292 295 295 296 296 297 307 316 321 324 326 328 327 320 322 321 322 323 326 327 329 329 326 323 323 319 317 316 312 310 309 305 298 301 303 294 295 297 298 298 299 299 301
294 294 296 298 298 297 296 307 315 319 324 326 325 325 325 324 326 326 326 326 326 329 328 326 323 320 318 317 315 312 311 309 302 298 301 301 299 298 296 295 292 296 295
294 295 295 297 298 299 299 298 307 314 319 324 326 324 325 325 321 320 320 320 319 324 327 327 325 322 320 319 318 312 310 310 310 303 298 299 300 295 293 298 301 291 291
294 295 296 297 298 299 302 305 307 311 316 320 320 321 321 319 316 315 316 316 316 316 318 322 324 324 321 319 318 315 311 311 309 310 306 302 297 297 296 294 297 299 302
294 295 295 296 296 297 299 303 307 309 313 316 317 317 318 317 316 316 315 313 313 312 314 315 319 321 321 320 318 316 313 310 310 309 307 306 305 305 299 298 298 296 296
294 294 295 295 295 296 297 298 299 300 303 307 309 310 312 313 314 313 313 312 311 312 312 312 313 317 319 320 318 317 313 312 310 309 308 308 306 306 305 302 298 297 299
293 293 294 294 294 295 295 296 297 297 298 299 300 300 301 303 304 305 306 307 307 306 307 307 307 308 310 314 316 315 313 310 309 309 309 308 309 305 306 304 304 301 298
293 294 294 294 294 294 295 296 296 296 296 297 297 297 298 299 300 300 301 301 302 303 303 303 304 305 305 306 309 311 313 311 310 309 308 307 307 307 305 304 303 301 300
293 294 294 294 295 295 295 295 295 295 295 295 296 296 297 297 298 298 298 299 299 299 300 300 301 301 302 303 303 305 308 308 308 308 306 305 306 305 305 303 302 301 299
292 293 294 294 294 294 294 294 294 294 293 294 294 294 294 295 295 295 296 296 297 297 297 297 298 298 299 300 300 301 302 303 303 305 305 304 303 302 304 303 301 299 299
292 292 292 292 293 293 293 293 293 292 292 292 292 293 292 292 292 292 293 293 293 293 294 294 295 295 297 298 299 300 301 302 303 303 302 302 302 299 300 300 299 298 298
292 291 291 291 291 292 292 292 292 292 291 291 291 291 291 290 290 291 291 291 291 291 292 292 292 292 293 294 295 298 299 300 300 301 301 301 298 299 298 296 296 295 294
290 290 290 290 290 291 291 291 291 291 290 289 289 289 289 289 288 288 288 288 288 289 289 289 290 290 290 292 293 293 294 295 295 296 296 297 296 293 296 294 294 292 291
289 290 290 290 290 290 290 290 290 289 288 287 287 287 286 286 286 286 286 286 286 287 287 287 287 288 289 292 292 292 291 291 290 291 292 291 288 290 292 294 295 293 290
289 289 289 289 289 289 289 289 289 288 286 286 285 284 284 283 284 284 284 284 285 285 285 285 286 286 287 289 291 291 289 289 290 289 289 288 288 287 288 290 292 292 293
289 289 289 289 289 288 288 287 286 286 285 284 283 282 283 282 282 281 282 282 283 283 283 283 284 284 284 288 290 290 289 288 289 288 288 287 287 287 285 286 286 286 286
289 289 288 288 287 287 286 285 285 284 284 284 283 283 281 280 280 279 280 281 281 281 280 282 281 281 282 286 288 289 286 286 286 286 286 285 285 286 287 285 284 284 284
288 288 287 286 286 285 284 284 283 282 283 283 282 281 280 278 278 280 279 279 278 279 280 280 280 278 279 283 286 287 285 284 285 284 283 283 285 286 287 285 284 282 283
287 286 285 285 284 284 283 282 281 281 281 279 279 279 278 277 277 278 277 277 276 277 277 278 279 278 279 280 285 287 285 284 283 282 282 283 285 287 287 286 284 284 285
284 285 285 284 283 281 279 278 279 280 277 276 276 276 275 276 278 278 275 274 273 274 275 275 278 279 279 280 285 288 286 285 282 281 282 283 286 287 286 285 287 287 284
283 283 280 279 281 276 276 276 278 277 276 273 276 279 279 275 279 279 276 276 273 274 276 276 277 278 279 280 285 286 285 284 281 282 283 284 287 287 286 287 287 284 283
278 276 275 274 275 275 275 273 275 276 272 272 274 276 278 281 282 281 278 276 276 276 276 276 277 277 277 279 283 284 281 282 283 284 285 286 286 286 284 283 284 283 283
276 274 273 272 273 273 272 270 273 272 271 271 273 275 278 279 280 281 281 278 278 278 279 279 278 278 277 279 283 282 281 282 283 284 284 283 282 282 281 280 280 280 281
272 270 268 268 269 269 269 268 266 268 267 270 272 273 275 276 277 278 279 282 283 284 285 286 285 281 282 284 286 285 285 286 285 282 281 280 280 279 279 276 275 275 275
Wind_Speed
8 7 6 7 9 10 12 13 13 14 11 9 9 7 8 7 6 6 9 10 10 11 10 6 7 8 9 10 10 6 5 6 3 2 4 7 9 10 10 9 10 11 10
7 8 7 5 8 9 11 11 13 12 12 10 10 7 7 6 7 6 8 12 12 12 11 11 9 9 8 8 9 8 3 4 7 4 1 4 4 9 12 10 10 14 10
7 7 6 4 3 6 7 10 11 11 11 10 5 3 3 2 3 4 7 9 11 12 12 12 11 10 9 9 10 11 12 8 6 9 4 3 7 2 2 11 11 12 10
6 6 6 6 5 3 5 7 6 7 8 9 9 13 10 9 8 8 6 6 9 10 10 11 12 11 8 10 10 10 10 8 7 4 9 6 1 5 4 4 5 9 10
5 7 7 6 5 5 4 1 4 4 5 9 9 8 8 5 1 1 4 5 5 9 9 8 9 9 9 11 11 9 12 10 9 8 3 9 9 4 6 11 6 3 8
6 6 6 7 6 7 7 5 5 3 3 4 5 7 7 4 2 2 4 4 4 4 8 9 8 7 9 10 10 11 13 12 11 9 9 8 5 6 9 10 12 12 7
6 7 8 9 10 11 10 8 8 7 5 3 2 1 2 3 5 4 4 3 4 3 6 7 8 7 6 8 9 9 11 11 11 13 10 10 11 9 6 7 8 8 4
6 7 7 7 8 8 9 9 9 8 7 6 5 3 2 1 3 3 3 3 4 4 4 5 6 9 9 7 7 8 8 10 10 14 11 9 10 9 10 9 7 9 9
6 7 6 7 7 8 8 8 8 8 8 7 5 5 4 4 3 4 3 3 4 3 5 5 7 7 9 10 11 8 9 9 10 11 12 11 9 9 10 9 9 10 14
8 7 8 8 7 8 6 9 9 9 6 6 6 4 5 5 4 3 4 4 4 4 5 6 6 8 8 8 9 10 11 11 9 9 12 12 9 10 8 10 9 9 12
7 7 7 7 7 7 9 9 10 11 10 9 6 7 6 6 5 4 4 5 4 4 5 5 7 8 8 8 8 10 11 13 12 10 11 13 12 9 9 8 9 10 10
6 6 6 7 8 9 9 9 9 10 8 7 6 6 6 6 6 6 6 5 6 5 6 5 6 7 8 8 9 11 10 12 13 13 13 13 8 12 12 9 12 11 11
6 5 6 7 6 6 6 6 6 6 5 5 5 6 6 7 8 7 7 6 7 7 7 6 6 8 8 9 9 10 11 12 13 12 12 13 12 11 10 10 10 8 9
7 6 6 6 6 6 5 6 6 6 6 7 7 8 8 9 9 9 9 10 9 8 8 6 6 7 7 8 9 10 11 12 11 12 12 12 11 13 11 10 11 10 8
7 6 6 6 5 5 5 5 6 7 6 7 7 7 7 7 8 9 9 9 8 8 9 10 10 9 7 6 7 8 10 11 11 10 11 11 11 13 13 7 8 8 8
6 6 6 6 5 4 3 3 4 4 4 4 5 5 6 6 7 7 8 8 9 9 9 10 9 10 7 13 14 12 8 8 9 10 9 8 8 10 14 15 15 11 9
6 6 5 5 3 4 3 5 5 4 4 4 4 4 5 5 6 7 7 7 8 8 8 9 9 10 10 16 17 15 7 8 8 8 8 7 5 7 7 10 14 14 16
7 5 4 2 2 1 4 4 4 3 3 3 3 3 4 5 6 6 7 8 6 8 9 9 9 9 9 16 16 14 8 8 9 9 8 7 7 6 5 6 7 6 3
6 5 3 2 1 1 2 4 5 5 5 6 6 6 5 7 7 7 8 7 7 7 7 7 9 9 9 16 17 13 7 8 9 6 6 6 6 8 10 5 5 3 1
4 4 2 1 5 6 6 7 7 7 8 9 9 7 6 6 8 8 8 5 5 9 6 9 8 8 9 14 17 14 6 7 6 4 4 7 7 9 8 4 4 4 2
6 4 3 2 3 4 5 6 6 6 6 6 8 8 7 7 8 8 5 8 9 9 8 9 8 8 8 10 16 17 5 4 4 4 3 3 7 6 4 4 4 4 5
3 3 1 3 3 3 3 3 5 5 6 7 9 9 7 6 7 9 8 7 7 8 9 9 10 6 7 10 12 13 5 6 4 3 2 3 5 5 7 5 9 15 9
2 2 1 2 5 3 1 4 5 6 8 7 9 9 9 6 7 10 10 9 4 6 9 7 8 8 6 4 12 3 4 5 3 2 3 5 6 10 6 12 16 10 5
2 2 4 4 5 4 3 5 6 7 7 9 10 10 10 11 10 7 7 7 7 7 7 7 8 7 5 5 2 2 1 1 1 1 2 6 9 10 10 8 8 5 5
3 3 2 3 6 5 5 5 6 7 8 8 8 9 10 11 12 12 11 8 8 8 8 7 6 7 6 4 5 5 2 2 2 3 4 5 4 6 6 7 7 5 4
2 3 3 5 7 7 8 6 5 6 7 10 8 8 9 9 10 12 13 14 20 20 19 19 13 4 12 11 9 7 8 7 7 3 5 5 5 5 5 6 6 5 5
Wind_Direction
279 267 256 231 206 203 198 197 190 192 181 190 196 207 208 209 207 208 201 198 207 204 202 210 211 189 195 205 207 200 184 210 166 117 240 253 244 246 242 240 238 237 233
307 304 300 250 213 210 209 201 206 191 193 196 205 207 198 212 213 201 212 216 205 203 199 203 204 203 212 200 193 187 183 215 181 186 41 283 255 233 233 224 227 238 235
319 334 340 337 227 229 208 206 208 199 197 193 164 108 98 94 166 202 217 221 216 210 207 209 211 206 202 212 205 199 202 215 197 204 184 185 237 349 211 232 230 232 232
0 357 12 24 11 331 226 216 192 192 188 174 180 203 210 219 220 225 214 212 219 220 211 214 212 208 206 216 217 203 209 206 208 221 233 250 189 251 306 240 242 234 238
360 360 7 6 12 9 17 215 201 191 172 185 192 197 209 224 150 192 195 212 213 230 231 226 221 214 210 220 214 202 208 208 220 210 162 224 233 222 245 276 252 239 234
16 26 24 20 20 20 36 56 102 111 161 176 178 188 204 191 185 213 237 231 233 235 238 243 243 229 219 221 218 211 209 214 219 221 222 206 187 204 217 239 256 255 235
47 45 38 37 33 30 28 39 53 54 52 74 82 176 228 212 226 233 246 248 254 239 247 236 245 245 235 225 219 217 217 214 220 218 221 223 226 223 212 227 254 253 227
56 56 48 49 51 45 37 45 54 55 46 53 41 30 4 303 289 284 276 268 270 273 283 266 255 252 254 251 236 236 224 227 226 229 226 226 228 224 224 230 231 269 257
69 66 53 53 53 49 45 46 55 51 42 43 41 32 21 6 335 317 293 281 280 271 278 265 263 256 250 249 251 240 240 223 225 230 232 233 236 226 230 229 227 244 281
74 57 46 48 50 57 45 54 53 58 46 46 38 36 28 17 360 344 335 316 300 291 292 286 277 275 262 252 247 251 247 238 236 236 234 232 235 236 221 226 227 226 248
74 64 55 45 49 51 46 46 43 40 32 29 28 32 27 26 25 19 353 337 313 305 283 274 276 271 271 267 259 260 259 256 255 241 238 239 237 233 230 219 225 230 230
83 69 63 56 50 47 45 44 36 36 23 11 19 30 21 15 10 2 350 336 324 319 301 300 284 276 269 260 254 259 255 254 254 255 256 248 236 233 238 232 230 226 224
98 84 70 62 54 45 39 41 41 34 14 12 14 21 22 13 4 352 343 339 329 328 325 290 289 291 284 277 264 260 259 254 254 251 249 256 251 244 240 235 239 232 233
122 107 80 69 60 50 39 25 25 24 15 15 15 16 9 1 353 347 348 345 342 329 319 319 299 288 285 278 273 267 267 271 267 267 260 255 242 248 242 236 237 239 234
106 102 91 73 57 49 32 21 20 11 6 11 11 2 351 352 344 345 339 334 329 324 323 324 324 317 306 296 293 278 278 273 273 264 257 257 256 247 246 238 240 232 235
122 108 102 99 84 52 28 7 11 7 357 351 343 329 331 332 330 324 324 322 323 326 326 324 318 315 311 306 302 293 283 273 269 273 265 255 259 261 257 256 251 235 229
141 123 100 84 68 23 354 4 346 343 341 314 302 307 310 304 304 300 299 303 313 313 315 311 311 306 302 304 303 296 281 268 264 266 269 269 252 257 265 270 269 266 251
150 140 128 102 101 4 352 326 309 302 294 277 275 276 311 313 309 310 309 313 309 308 311 307 304 302 296 303 300 291 278 268 259 253 253 253 261 252 254 262 266 263 242
152 148 140 147 118 68 327 334 352 3 0 1 348 340 332 323 318 310 307 302 302 304 291 291 292 289 287 298 298 296 278 275 270 264 261 256 256 257 263 235 244 197 117
135 144 114 31 24 12 8 6 349 354 352 344 329 318 312 309 314 312 310 302 283 295 295 295 282 275 279 290 296 297 274 275 282 273 282 287 274 281 272 234 173 145 113
142 136 116 39 350 13 11 356 338 335 311 313 313 310 311 309 305 305 304 310 311 308 306 298 291 278 273 279 295 293 263 258 267 271 281 275 290 290 287 143 137 129 133
108 102 85 349 1 55 58 319 312 295 310 314 309 304 299 300 300 293 300 286 284 293 296 298 303 283 283 278 288 291 278 279 274 273 263 277 294 138 109 115 136 123 100
357 38 125 342 327 30 59 317 297 320 314 310 300 302 302 289 297 300 302 305 277 284 293 289 295 300 290 280 285 257 271 276 251 253 241 220 126 105 103 114 108 92 94
45 60 37 2 315 334 325 248 297 309 308 301 301 302 298 298 295 286 283 278 283 282 285 287 287 292 289 287 238 215 294 246 236 156 170 119 98 89 88 86 90 95 108
53 46 5 306 296 307 296 284 296 302 296 291 291 290 295 293 295 291 285 270 268 247 277 275 267 282 280 263 217 187 186 174 127 93 98 95 90 92 86 73 66 66 76
1 1 351 320 305 305 308 299 289 295 291 302 300 298 299 296 293 296 296 272 273 280 280 278 273 239 246 255 204 189 181 164 124 72 103 96 89 95 100 96 87 64 62